Regional Weather Roundup
Issued by NWS

Home | Current Version | Previous Version | Graphics & Text | Print | Product List | Glossary On
Versions: 1 2 3 4 5 6 7 8 9 10 11 12 13 14 15 16 17 18 19 20 21 22 23 24 25 26 27 28 29 30 31 32 33 34 35 36 37 38 39 40 41 42 43 44 45 46 47 48 49 50
000
ASUS43 KDTX 281910
RWRMI
MICHIGAN HOURLY REGIONAL WEATHER ROUNDUP
NATIONAL WEATHER SERVICE DETROIT/PONTIAC MI
300 PM EDT SAT MAR 28 2015

NOTE: "FAIR" INDICATES FEW OR NO CLOUDS BELOW 12,000 FEET WITH NO
SIGNIFICANT WEATHER AND/OR OBSTRUCTION TO VISIBILITY.

MIZ047>049-052>055-059>063-066>070-074>076-081>083-282000-
SOUTHEAST LOWER MICHIGAN

CITY           SKY/WX    TMP DP  RH WIND       PRES   REMARKS
ADRIAN         SUNNY     33   9  36 VRB7      30.28F
ALMA           SUNNY     33   3  28 CALM      30.29F
ANN ARBOR      SUNNY     34   8  33 NE9       30.26F
BAD AXE        SUNNY     27  11  51 N7        30.27F
DETROIT CITY   SUNNY     35   9  33 N6G18     30.27F
DETROIT        MOSUNNY   35   9  33 NW6       30.28F
FLINT          SUNNY     35   5  28 N12G17    30.28S
GROSSE ILE     MOSUNNY   34   9  35 N5        30.26F
HILLSDALE      SUNNY     32   4  31 N3        30.25F
HOWELL         SUNNY     32   8  36 NW7       30.26F

CITY           SKY/WX    TMP DP  RH WIND       PRES   REMARKS
JACKSON        SUNNY     33   5  30 VRB6      30.26F
LAMBERTVILLE   SUNNY     34  10  37 NW8       30.28F
LANSING        SUNNY     32   8  36 VRB6      30.29F
LAPEER         NOT AVBL
MASON          SUNNY     32   6  34 NW5       30.28S
MONROE         SUNNY     30  12  47 NE5       30.27F
MT. CLEMENS    MOSUNNY   32  13  44 NW8       30.25S
PONTIAC        MOSUNNY   33   7  33 VRB7      30.24F
PORT HOPE        N/A     28  12  51 N6        30.27F
PORT HURON     MOSUNNY   28  16  59 NW5       30.27S
TRI CITIES     SUNNY     33   8  35 CALM      30.28F
YPSILANTI      SUNNY     37   9  31 N13G21    30.27F
$$
MIZ043>046-050>051-056>058-064>065-071>073-077>080-282000-
SOUTHWEST LOWER MICHIGAN

CITY           SKY/WX    TMP DP  RH WIND       PRES   REMARKS
BATTLE CREEK   SUNNY     35   2  24 N6        30.28F
BENTON HARBOR  SUNNY     26  11  52 VRB7      30.33F
BIG RAPIDS     SUNNY     33   3  28 S5        30.25F
COLDWATER      SUNNY     32   4  30 CALM      30.28F
HOLLAND        SUNNY     31  12  45 W10       30.32F
GRAND RAPIDS   SUNNY     32   3  29 VRB6      30.29F
KALAMAZOO      SUNNY     33   2  26 N5        30.29F
MARSHALL       SUNNY     32   3  29 SW3       30.27F
MUSKEGON       SUNNY     29   6  38 W9G20     30.33F
$$
MIZ016>042-282000-
NORTHERN LOWER MICHIGAN

CITY           SKY/WX    TMP DP  RH WIND       PRES   REMARKS
ALPENA         SUNNY     33   7  33 CALM      30.25F
BEAVER ISLAND  SUNNY     27  15  58 SW14G20   30.28F
BELLAIRE       SUNNY     29   2  31 S5        30.30F
CADILLAC       SUNNY     33   0  24 CALM      30.22F
CHARLEVOIX     SUNNY     28   4  36 W9        30.32F
FRANKFORT      CLEAR     31   2  29 W7        30.31F
GAYLORD        SUNNY     27   3  35 NW7       30.23F
GRAYLING       SUNNY     33   3  27 W7        30.24F
HARBOR SPRINGS SUNNY     25   6  43 SW9       30.28F
HOUGHTON LAKE  SUNNY     32   2  27 SW8       30.24F
MANISTEE       SUNNY     28   3  34 W9        30.31F
OSCODA         SUNNY     31  12  45 E7        30.26S
PELLSTON       SUNNY     29   5  36 SW12      30.27F
TRAVERSE CITY  SUNNY     31   8  38 NE8       30.28F
$$
MIZ007>008-015-282000-
EASTERN UPPER MICHIGAN

CITY           SKY/WX    TMP DP  RH WIND       PRES   REMARKS
KINROSS        SUNNY     30   7  37 NW8       30.22F
MACKINAC ISLAN SUNNY     24  12  60 SW8       30.27S
NEWBERRY       SUNNY     28   5  37 SW7       30.22F
S. S. MARIE      N/A     29   5  36 NW7       30.24F
$$
MIZ004>006-011>014-085-282000-
CENTRAL UPPER MICHIGAN

CITY           SKY/WX    TMP DP  RH WIND       PRES   REMARKS
MANISTIQUE     SUNNY     27  17  65 S13       30.26F
ESCANABA       SUNNY     28  12  50 S14       30.26F
MENOMINEE      SUNNY     34  16  47 SW8       30.26F
SAWYER-GWINN   SUNNY     34   3  27 SW5       30.18F
$$
MIZ001>003-009>011-084-282000-
WESTERN UPPER MICHIGAN

CITY           SKY/WX    TMP DP  RH WIND       PRES   REMARKS
IRON MOUNTAIN  SUNNY     36   9  32 S7        30.18F
HOUGHTON       SUNNY     34   4  28 W10       30.16F
COPPER HARBOR    N/A     30  12  47 N5        30.20F
IRONWOOD       SUNNY     37   9  30 S8        30.12F
$$

ABBREVIATIONS USED IN REMARKS
   TC - TEMPERATURE IN CELSIUS
  WCI - WIND CHILL INDEX
   HX - HEAT INDEX
  VSB - VISIBILITY




USA.gov is the U.S. government's official web portal to all federal, state and local government web resources and services.